Wetbulb
59.04 54.27 50.12 49.13 41.53 38.64 33.14 37.55 42.74 44.66 49.06 51.67 52.94 50.81 47.85 49.81 50.28 48.39 57.30 57.60 58.53 60.18 62.01 63.49 68.01 69.35 71.86 72.33 72.45 72.53 72.93 72.58 71.27 72.29 72.21 72.56 72.81 72.68 72.62 73.27 73.50 73.52 74.03 73.23 72.77 72.63 72.48 72.61 72.54
56.75 53.89 48.49 42.12 36.50 32.46 34.17 38.89 42.70 49.64 51.52 48.88 47.78 48.78 47.40 45.47 53.14 54.42 53.82 56.83 57.44 58.90 60.20 61.80 67.63 67.61 69.52 71.34 71.52 70.86 71.34 72.06 72.23 71.82 71.82 72.33 72.86 72.37 72.35 71.93 72.07 72.25 73.33 73.05 72.82 72.04 72.11 72.16 71.96
51.40 52.89 44.47 37.07 32.13 28.65 32.17 37.91 38.03 45.38 49.77 51.80 45.61 48.78 48.59 46.78 52.82 53.85 55.07 56.37 57.24 57.28 58.28 61.94 66.35 66.92 67.57 68.65 69.35 70.64 70.26 70.41 71.74 71.80 72.05 72.34 72.15 72.00 71.19 70.84 70.58 72.29 72.63 72.22 72.04 71.83 71.81 71.86 71.22
47.93 45.10 40.82 32.54 31.25 34.79 35.43 39.07 41.94 45.64 45.98 47.54 45.94 44.07 49.67 53.80 52.66 54.53 55.76 56.42 55.05 55.79 57.10 59.00 63.47 65.43 66.86 67.18 67.84 68.68 70.76 69.36 69.27 71.48 71.72 71.70 71.52 71.59 71.19 70.79 71.03 70.81 71.55 70.61 71.19 71.72 71.46 70.95 70.45
44.74 39.99 33.51 30.75 33.10 35.23 37.96 40.00 42.34 41.90 43.13 43.78 45.04 43.88 46.86 53.70 56.00 53.98 53.82 53.55 52.84 53.23 55.58 56.44 59.69 62.04 64.10 65.81 66.67 67.08 68.40 69.73 69.25 69.47 70.85 71.05 71.22 71.07 70.84 70.53 70.76 71.20 70.94 70.67 71.06 71.22 70.72 70.26 69.70
40.32 37.99 29.50 27.99 31.95 36.92 37.76 39.96 41.21 40.34 41.53 42.17 40.57 39.67 39.59 45.95 51.00 53.50 51.12 51.75 52.06 51.93 53.72 55.23 57.17 58.43 60.53 62.52 64.70 64.92 66.48 68.25 69.59 68.69 70.47 71.22 70.99 70.65 70.29 70.66 70.67 71.20 70.29 69.79 70.74 70.18 70.28 69.74 69.40
39.32 35.10 30.47 30.74 32.46 33.95 37.17 40.69 38.73 38.58 38.54 38.98 42.08 36.24 39.26 41.86 44.66 47.55 49.62 48.95 49.64 51.47 52.10 51.64 52.14 53.56 56.61 59.20 61.48 62.37 64.57 66.14 68.05 69.08 68.64 70.38 70.31 70.21 70.09 69.71 70.42 70.64 69.88 69.88 69.58 69.03 69.53 69.35 68.85
38.45 35.89 30.41 31.68 31.03 31.02 38.18 39.50 39.96 37.63 35.85 43.41 42.78 34.64 33.44 40.00 43.55 44.61 46.06 46.47 47.68 49.22 49.83 49.73 50.42 50.79 51.77 54.20 58.56 60.16 62.06 64.52 66.34 67.35 68.85 68.70 69.88 70.04 69.50 68.92 69.54 69.82 69.26 69.27 69.53 68.73 68.28 68.74 67.41
38.78 31.33 28.14 30.08 31.79 33.82 39.72 36.03 39.48 40.96 37.50 38.54 39.33 38.57 40.21 42.30 43.39 42.39 43.06 43.20 44.82 47.33 47.82 48.91 49.44 50.09 50.18 52.11 54.38 56.84 59.58 63.17 64.24 65.23 66.01 67.67 67.06 67.78 69.27 68.72 68.62 69.31 69.23 68.92 68.72 68.79 68.38 67.69 66.94
35.61 29.18 30.84 34.75 36.19 35.90 37.10 36.43 38.38 36.41 35.34 35.29 36.25 39.11 40.56 40.83 40.58 39.74 40.20 40.23 41.47 44.25 46.04 47.73 48.10 49.30 49.06 49.92 50.69 52.89 55.71 57.50 61.81 61.34 61.64 63.72 66.81 66.02 68.47 68.81 68.28 68.51 67.89 68.57 68.29 68.46 67.55 66.83 63.88
34.55 31.49 36.01 36.88 37.95 37.30 35.05 34.74 37.62 34.87 31.30 34.35 33.72 35.37 37.53 38.35 38.19 38.12 38.94 39.85 38.45 42.65 44.93 46.69 47.39 48.71 48.78 48.33 49.14 50.61 51.69 53.89 58.22 59.78 60.99 61.41 66.24 65.38 65.62 67.55 67.53 67.15 67.75 67.80 67.60 67.04 66.43 63.51 61.46
33.08 35.76 36.39 36.22 36.42 35.15 32.32 34.79 32.86 34.21 33.89 37.08 36.95 37.18 37.02 36.37 36.03 35.97 36.73 37.63 38.63 40.59 41.76 44.85 46.96 47.18 48.98 48.36 47.61 48.37 49.53 51.25 52.97 56.59 58.59 57.73 60.66 66.26 65.53 64.74 65.15 66.10 66.98 66.71 66.96 65.75 64.32 62.37 61.55
35.10 35.52 36.50 36.57 35.65 34.32 35.19 32.20 31.94 32.80 35.53 36.55 37.08 36.80 35.34 35.37 34.34 35.41 36.28 37.56 37.75 39.18 40.55 41.93 45.22 45.60 47.68 48.38 47.83 47.12 48.11 49.11 51.22 55.21 55.89 56.71 57.71 60.66 66.37 65.95 66.20 65.92 65.56 66.42 66.78 65.63 63.59 62.03 61.78
33.56 34.94 33.57 34.35 33.43 33.40 31.23 30.66 32.25 33.01 35.42 34.76 34.59 33.14 34.40 34.29 33.85 34.36 34.76 34.96 36.26 39.04 39.66 40.94 42.74 43.86 45.66 45.66 47.20 46.43 47.19 48.44 50.23 52.54 53.17 54.52 55.39 57.41 60.06 65.88 65.80 65.95 66.49 66.35 66.87 65.67 63.62 61.78 62.04
33.17 29.11 30.18 29.60 29.24 30.29 32.18 27.17 27.74 30.35 33.76 32.42 31.85 31.43 32.82 33.59 33.59 32.04 33.73 34.23 34.10 36.82 38.70 39.63 41.97 42.76 42.44 44.68 45.31 45.89 46.43 47.11 48.30 49.78 51.64 52.55 53.52 55.09 56.35 64.52 66.10 65.99 66.37 66.24 66.35 65.40 64.50 61.96 62.26
28.09 26.87 22.02 27.21 29.92 29.28 28.24 20.21 27.05 30.14 30.02 28.41 30.23 30.63 30.70 31.12 31.34 31.80 33.23 32.88 33.22 34.39 36.35 38.26 41.02 40.82 41.52 42.25 44.79 45.18 45.31 45.66 47.44 47.93 50.24 50.50 51.72 53.60 54.74 60.12 65.90 66.58 66.20 66.27 66.08 65.38 64.12 62.67 62.17
24.05 18.04 21.42 24.52 28.32 27.43 26.53 22.52 26.40 28.82 29.34 26.89 26.63 27.44 29.14 29.06 30.88 30.85 32.01 31.55 32.87 33.51 35.30 36.59 37.36 38.56 40.39 41.47 42.96 44.62 44.60 44.69 45.95 46.84 48.37 49.23 50.28 52.03 54.10 57.55 63.01 66.01 65.87 65.88 65.58 65.11 64.56 62.26 61.70
17.98 17.83 16.81 18.35 23.29 25.64 22.73 21.39 26.41 25.81 26.60 26.04 23.09 23.87 25.72 26.30 27.73 30.81 31.80 31.29 32.24 32.42 34.32 34.95 36.35 37.03 39.15 40.77 41.20 42.72 43.55 43.82 44.63 45.22 46.47 48.44 49.17 49.94 52.72 54.45 56.49 64.79 64.79 65.13 64.97 63.91 64.32 63.01 61.73
24.32 21.09 18.32 21.22 26.27 24.07 21.93 20.78 21.71 22.13 22.45 22.32 23.45 24.81 25.14 27.09 29.85 29.82 30.88 30.67 31.33 32.03 32.91 33.81 34.68 35.88 37.58 38.67 38.58 39.05 40.73 41.99 42.96 44.35 45.30 46.46 48.42 48.79 50.46 52.05 54.25 56.79 62.83 64.36 64.30 63.38 62.87 62.37 62.28
24.38 21.74 19.93 22.74 27.45 24.28 18.62 18.16 21.34 25.12 23.89 24.45 25.00 24.85 24.79 25.65 28.19 30.19 28.95 28.67 29.27 29.82 31.76 32.76 33.55 34.63 36.32 38.21 38.68 38.04 39.75 40.88 42.75 43.39 43.99 45.53 46.65 48.52 48.48 49.77 51.97 53.69 56.27 63.70 63.84 62.97 61.71 61.77 62.27
22.37 21.77 21.02 20.81 24.38 23.99 21.34 18.09 22.75 26.87 26.31 27.49 26.98 26.89 26.86 26.65 25.39 26.89 28.33 26.04 27.53 28.57 29.71 32.15 32.71 33.88 35.84 37.37 38.18 39.22 40.05 40.56 40.96 41.36 42.10 43.73 45.24 46.14 47.22 47.03 49.92 52.36 54.23 58.88 63.28 63.29 62.22 60.61 61.70
21.66 25.33 25.11 23.91 19.75 14.10 21.17 7.94 18.00 24.46 24.22 25.48 26.18 24.94 25.45 25.08 25.35 26.10 25.80 25.83 26.81 28.42 29.68 31.47 32.64 32.85 36.31 36.84 36.24 35.66 36.76 36.67 39.47 40.21 41.93 42.11 43.86 44.44 45.37 45.87 47.07 49.46 53.06 53.64 58.19 63.49 62.60 61.54 60.14
24.39 27.21 23.77 24.33 18.99 15.74 16.52 11.42 13.61 21.32 20.61 22.44 24.33 25.97 24.84 24.39 23.54 24.11 24.85 24.24 25.68 27.29 28.73 29.92 31.85 33.37 34.41 35.88 35.52 35.45 35.97 38.35 39.66 40.82 40.25 40.82 42.26 43.34 44.08 44.85 45.69 47.51 50.19 51.55 53.20 58.51 62.05 62.57 60.74
28.87 24.08 22.65 19.94 16.22 5.75 14.85 14.06 9.94 14.88 20.17 22.47 25.21 25.77 26.51 25.25 24.90 25.47 27.18 27.49 27.61 27.55 28.35 29.53 30.99 32.43 33.84 34.99 35.08 34.74 34.32 36.34 37.58 38.91 39.45 39.88 41.26 41.39 43.05 44.15 44.65 45.82 48.22 51.19 52.13 54.18 60.30 62.22 61.75
24.82 17.78 13.06 13.44 7.29 6.40 16.08 11.28 13.28 20.68 23.87 24.65 24.70 23.92 25.25 26.07 26.11 26.64 24.97 26.68 27.81 27.74 28.21 30.11 31.39 31.72 32.98 33.98 34.03 34.67 34.58 35.90 36.89 38.30 39.30 39.31 39.83 39.74 41.64 43.05 43.95 44.82 47.17 50.74 51.30 53.27 55.74 61.69 61.00
21.50 18.21 8.69 6.65 1.21 4.52 16.41 4.35 13.31 23.16 27.01 27.58 27.60 26.12 26.16 25.93 25.70 26.58 28.60 27.44 27.13 28.48 28.46 28.63 30.52 31.23 32.80 32.95 33.00 33.83 34.55 35.70 37.03 38.34 39.31 39.94 40.25 40.50 42.42 43.34 44.43 45.31 46.88 49.59 51.04 52.39 54.14 56.33 61.75
21.21 16.33 21.60 16.67 16.88 10.28 6.51 10.94 18.51 24.20 26.06 27.14 27.31 26.21 24.70 25.06 26.80 28.51 29.45 27.71 27.65 27.87 28.66 28.37 29.35 31.01 32.71 32.29 32.36 32.79 33.53 35.27 35.97 37.36 39.22 40.40 40.76 41.69 42.53 43.50 44.16 46.29 46.98 45.67 47.40 49.47 51.39 53.39 57.69
24.55 26.16 15.21 13.94 1.32 -1.70 0.73 2.81 7.26 19.78 22.86 25.27 24.68 24.15 24.06 25.11 26.93 27.29 27.17 27.34 28.64 28.67 28.60 28.69 29.93 31.35 31.81 31.65 31.61 33.42 32.93 34.80 36.60 37.39 38.14 39.64 40.24 41.74 42.30 43.27 44.84 43.90 43.86 43.59 44.49 45.49 48.46 49.35 52.41
21.23 19.32 19.21 17.66 14.54 2.73 -4.61 6.00 13.57 19.16 24.34 23.62 23.82 25.55 24.29 23.92 24.43 25.33 26.39 27.74 28.07 28.37 28.15 28.73 30.12 31.31 31.20 31.36 31.95 32.29 32.97 34.52 36.44 36.67 38.08 39.39 40.86 41.71 42.18 43.26 43.21 41.71 41.72 41.57 42.20 43.16 45.40 45.73 49.35
25.01 23.23 22.07 12.86 14.48 14.28 7.13 7.45 23.42 23.33 24.25 24.51 24.55 26.33 25.58 25.96 26.26 27.02 26.59 27.22 28.02 28.41 28.74 28.81 30.17 30.11 31.45 32.20 32.86 32.98 33.72 34.55 35.13 36.65 37.29 39.37 40.95 42.07 42.41 42.62 41.64 40.02 39.72 39.69 39.80 40.54 42.17 43.28 45.23
MSLP
1010.55 1010.05 1010.16 1010.62 1012.17 1013.26 1014.93 1016.01 1015.71 1015.56 1016.04 1016.61 1016.03 1016.47 1018.04 1019.11 1019.21 1020.41 1020.54 1020.84 1020.15 1019.41 1018.69 1017.40 1016.35 1015.52 1014.59 1014.05 1013.73 1014.18 1014.12 1014.26 1014.11 1013.93 1013.95 1013.88 1013.86 1014.21 1014.21 1014.58 1014.78 1014.94 1015.16 1015.24 1015.77 1016.15 1016.47 1016.68 1016.91
1010.30 1010.10 1010.53 1011.70 1013.68 1015.55 1017.07 1017.56 1016.93 1016.48 1016.81 1017.44 1017.40 1017.92 1018.41 1019.88 1020.40 1020.92 1021.15 1020.97 1020.58 1019.90 1019.04 1018.01 1016.85 1016.05 1015.37 1014.86 1014.68 1014.67 1014.60 1014.53 1014.48 1014.41 1014.30 1014.13 1014.26 1014.57 1014.56 1014.84 1015.03 1015.08 1015.46 1015.61 1015.96 1016.44 1016.83 1017.07 1017.27
1010.18 1010.35 1011.63 1013.57 1016.60 1018.58 1018.71 1018.89 1018.50 1018.10 1017.81 1017.58 1018.73 1019.43 1019.98 1021.47 1021.57 1022.13 1022.50 1021.80 1020.61 1019.78 1019.12 1018.44 1017.36 1016.84 1016.29 1016.15 1015.38 1015.31 1014.97 1014.99 1014.83 1014.81 1014.75 1014.55 1014.66 1014.91 1015.00 1015.21 1015.40 1015.60 1015.70 1015.83 1016.30 1016.89 1017.19 1017.45 1017.64
1010.45 1011.47 1013.65 1016.54 1019.03 1020.33 1020.41 1019.75 1018.68 1017.98 1018.48 1018.97 1019.53 1020.52 1022.15 1022.66 1022.49 1022.93 1022.35 1021.77 1021.12 1020.05 1019.44 1018.74 1017.95 1017.51 1016.64 1016.64 1016.53 1015.98 1015.39 1015.39 1015.24 1015.09 1015.05 1014.95 1015.14 1015.18 1015.22 1015.28 1015.56 1015.93 1016.00 1016.26 1016.86 1017.26 1017.58 1017.71 1017.93
1011.15 1013.10 1016.41 1019.21 1020.44 1021.17 1020.95 1020.60 1019.68 1019.34 1020.09 1020.53 1020.54 1022.37 1022.86 1023.32 1023.38 1023.34 1022.91 1022.14 1021.12 1020.57 1019.97 1019.62 1018.95 1018.20 1017.42 1017.40 1016.95 1016.73 1016.33 1015.73 1015.55 1015.36 1015.08 1015.29 1015.24 1015.31 1015.28 1015.32 1015.55 1015.96 1016.37 1016.59 1017.21 1017.47 1017.71 1017.91 1018.13
1012.58 1014.61 1018.71 1020.78 1021.66 1021.90 1021.65 1021.48 1021.23 1020.95 1021.15 1021.22 1022.20 1022.81 1024.26 1024.25 1023.73 1023.44 1022.98 1022.49 1021.69 1020.90 1020.73 1020.32 1019.72 1019.27 1018.92 1018.36 1017.55 1017.36 1016.97 1016.47 1015.80 1015.67 1015.37 1015.47 1015.41 1015.44 1015.29 1015.42 1015.69 1016.00 1016.30 1016.95 1016.91 1017.60 1017.77 1018.13 1018.23
1013.66 1016.20 1019.65 1021.07 1022.00 1022.33 1022.42 1021.81 1021.91 1022.03 1021.89 1022.05 1022.49 1024.04 1025.51 1024.86 1024.58 1023.94 1023.40 1022.68 1022.07 1021.57 1021.28 1021.09 1020.73 1020.13 1019.67 1019.13 1018.73 1018.36 1017.63 1016.97 1016.21 1015.86 1015.74 1015.68 1015.58 1015.59 1015.57 1015.67 1015.84 1015.99 1016.19 1016.51 1016.97 1017.50 1017.74 1018.23 1018.41
1014.08 1016.85 1019.91 1021.38 1022.59 1023.86 1023.58 1022.88 1023.28 1022.95 1023.66 1023.25 1023.44 1025.30 1026.29 1026.14 1025.37 1024.64 1024.02 1023.45 1022.58 1021.84 1021.75 1021.70 1021.39 1020.73 1020.45 1019.92 1019.64 1018.77 1018.08 1017.54 1016.56 1016.19 1015.87 1015.77 1015.58 1015.65 1015.72 1015.90 1016.04 1016.04 1016.28 1016.61 1017.08 1017.42 1017.82 1018.29 1018.60
1014.70 1018.14 1020.96 1021.95 1022.74 1023.61 1023.50 1023.77 1024.05 1024.87 1024.79 1025.20 1025.95 1026.43 1026.87 1026.44 1025.60 1024.97 1024.70 1024.41 1023.69 1022.99 1022.33 1021.88 1021.74 1021.52 1021.14 1020.46 1019.95 1019.36 1018.68 1017.84 1017.11 1016.48 1016.26 1015.92 1015.81 1015.84 1015.91 1015.99 1016.28 1016.26 1016.31 1016.31 1016.92 1017.65 1017.79 1018.44 1018.63
1016.91 1020.17 1021.91 1022.45 1022.96 1023.74 1024.31 1024.39 1024.53 1025.40 1026.11 1026.70 1026.89 1027.28 1027.10 1026.59 1026.04 1025.99 1025.87 1025.65 1025.22 1024.41 1023.68 1023.15 1022.70 1022.08 1021.51 1021.01 1020.57 1020.25 1019.69 1018.96 1018.05 1017.41 1017.18 1016.71 1016.20 1016.16 1015.86 1015.96 1016.25 1016.55 1016.60 1016.63 1017.17 1017.59 1017.74 1018.45 1018.90
1019.19 1021.60 1023.21 1024.08 1024.39 1024.80 1025.25 1025.70 1026.10 1026.09 1027.42 1027.99 1028.07 1028.23 1027.91 1027.53 1027.39 1027.30 1027.18 1026.88 1026.51 1025.75 1024.75 1024.03 1023.47 1022.84 1022.43 1022.05 1021.67 1021.34 1020.79 1019.88 1019.09 1018.30 1017.84 1017.38 1016.53 1016.33 1016.15 1016.08 1016.21 1016.46 1016.66 1016.87 1017.01 1017.71 1018.03 1018.58 1018.99
1021.54 1023.14 1023.77 1025.12 1025.40 1025.96 1026.68 1027.18 1027.64 1027.84 1028.92 1028.99 1028.85 1028.84 1028.58 1028.38 1028.37 1028.38 1028.17 1027.81 1027.22 1026.34 1025.61 1024.87 1024.19 1023.56 1023.09 1022.86 1022.47 1022.03 1021.28 1020.82 1020.05 1019.38 1018.80 1018.38 1017.37 1016.34 1016.34 1016.24 1016.34 1016.39 1016.56 1016.70 1017.02 1017.52 1018.24 1018.63 1018.88
1022.86 1024.47 1025.17 1026.10 1026.58 1027.22 1027.67 1028.26 1028.73 1029.52 1029.76 1029.64 1029.44 1029.20 1029.25 1029.31 1029.23 1028.97 1028.69 1028.35 1027.80 1027.03 1026.29 1025.58 1024.86 1024.29 1023.68 1023.26 1022.87 1022.35 1022.00 1021.61 1020.77 1020.19 1019.61 1019.16 1018.15 1017.09 1016.16 1016.34 1016.54 1016.71 1016.66 1016.88 1016.94 1017.44 1018.22 1018.64 1018.88
1024.96 1025.34 1026.24 1026.78 1027.38 1028.12 1028.42 1029.38 1029.30 1030.64 1030.47 1030.15 1030.07 1030.10 1030.02 1029.95 1029.88 1029.64 1029.22 1028.76 1028.21 1027.64 1027.03 1026.30 1025.55 1025.07 1024.41 1023.80 1023.40 1022.95 1022.58 1022.04 1021.32 1020.91 1020.41 1019.56 1018.68 1017.72 1016.77 1016.16 1016.44 1016.60 1016.78 1016.84 1016.93 1017.36 1017.68 1018.65 1018.78
1025.22 1025.97 1026.93 1027.57 1027.84 1028.62 1028.53 1030.39 1031.03 1031.13 1030.74 1030.69 1030.77 1030.77 1030.71 1030.66 1030.34 1030.30 1029.85 1029.38 1028.90 1028.13 1027.57 1026.86 1026.13 1025.68 1025.04 1024.32 1023.82 1023.40 1022.86 1022.40 1021.88 1021.26 1020.77 1020.02 1019.00 1018.37 1017.38 1015.88 1016.07 1016.38 1016.48 1016.70 1017.02 1017.25 1017.65 1018.58 1018.91
1026.32 1027.21 1028.46 1028.50 1028.54 1029.09 1029.16 1031.37 1031.63 1031.50 1031.08 1031.44 1031.40 1031.33 1031.28 1031.20 1031.17 1030.78 1030.25 1029.76 1029.19 1028.63 1028.01 1027.43 1026.69 1026.26 1025.60 1024.97 1024.21 1023.74 1023.33 1022.91 1022.43 1021.67 1021.14 1020.22 1019.46 1018.93 1017.74 1016.44 1015.52 1015.85 1016.11 1016.39 1016.76 1017.14 1017.69 1018.35 1018.82
1028.44 1029.49 1029.78 1029.35 1029.41 1029.48 1029.97 1031.83 1032.00 1032.03 1031.80 1032.17 1032.05 1031.88 1031.67 1031.48 1031.18 1031.02 1030.62 1030.17 1029.56 1029.05 1028.44 1027.77 1027.19 1026.76 1026.14 1025.41 1024.73 1024.07 1023.49 1023.06 1022.49 1021.92 1021.45 1020.61 1019.81 1019.25 1018.10 1016.86 1015.50 1015.59 1015.68 1015.86 1016.38 1016.71 1017.10 1017.98 1018.56
1030.85 1030.74 1030.55 1030.51 1030.33 1030.46 1031.28 1032.09 1032.41 1032.49 1032.23 1032.30 1032.12 1031.98 1031.73 1031.46 1031.18 1031.00 1030.72 1030.38 1029.86 1029.33 1028.80 1028.14 1027.56 1027.05 1026.47 1025.75 1025.13 1024.35 1023.69 1023.44 1022.66 1022.23 1021.84 1020.86 1020.19 1019.61 1018.50 1017.44 1016.80 1015.49 1015.64 1015.19 1015.96 1016.43 1016.08 1017.30 1018.26
1030.64 1030.94 1031.07 1030.75 1030.48 1031.32 1032.07 1032.62 1032.75 1032.62 1032.48 1032.26 1031.96 1031.80 1031.49 1031.23 1030.94 1030.83 1030.89 1030.55 1030.06 1029.59 1029.09 1028.42 1027.80 1027.34 1026.73 1025.99 1025.37 1024.65 1024.09 1023.58 1022.91 1022.75 1022.23 1021.04 1020.53 1020.01 1019.08 1018.12 1017.48 1016.16 1015.79 1015.38 1015.86 1016.31 1015.99 1016.93 1018.12
1030.67 1031.06 1031.37 1031.40 1031.33 1031.74 1032.91 1033.04 1032.86 1032.64 1032.34 1032.07 1031.86 1031.66 1031.42 1031.25 1031.10 1030.99 1030.92 1030.71 1030.46 1030.15 1029.47 1028.78 1028.21 1027.69 1027.10 1026.52 1026.06 1025.51 1024.60 1023.90 1023.53 1023.02 1022.48 1021.32 1020.93 1020.51 1019.63 1018.88 1018.00 1017.50 1016.83 1015.50 1015.07 1016.21 1016.56 1017.24 1017.98
1030.83 1031.34 1031.61 1032.20 1032.41 1032.68 1033.35 1033.62 1033.21 1032.56 1032.18 1031.94 1031.72 1031.42 1031.24 1031.14 1031.09 1030.93 1030.77 1030.71 1030.60 1030.23 1029.69 1028.97 1028.28 1027.86 1027.34 1026.78 1026.25 1025.73 1024.97 1024.27 1023.64 1022.87 1022.18 1021.57 1021.46 1020.81 1020.13 1019.64 1018.77 1017.73 1017.31 1016.01 1015.61 1016.08 1016.35 1016.75 1017.60
1030.68 1031.05 1031.44 1032.07 1033.05 1033.59 1033.97 1034.79 1033.49 1032.68 1032.10 1031.79 1031.54 1031.42 1031.19 1030.93 1030.80 1030.65 1030.49 1030.45 1030.31 1030.12 1029.62 1028.95 1028.33 1027.83 1027.14 1026.88 1026.62 1026.29 1025.66 1024.93 1024.32 1023.63 1022.84 1022.09 1021.53 1021.07 1020.29 1019.62 1019.38 1018.56 1017.71 1016.86 1016.10 1015.95 1016.24 1016.52 1017.19
1030.96 1030.98 1031.58 1032.44 1033.59 1034.61 1034.98 1035.71 1033.32 1032.99 1032.43 1031.69 1031.29 1031.07 1030.98 1030.77 1030.69 1030.50 1030.33 1030.25 1030.07 1029.88 1029.60 1029.15 1028.49 1027.79 1027.42 1027.14 1026.86 1026.51 1026.06 1025.29 1024.64 1023.87 1023.15 1022.44 1022.25 1021.02 1020.44 1020.39 1019.83 1019.25 1018.14 1017.45 1017.07 1016.27 1016.08 1016.30 1016.63
1030.77 1031.48 1032.24 1033.45 1034.66 1035.86 1035.53 1036.13 1034.47 1033.36 1031.96 1031.27 1030.83 1030.73 1030.76 1030.72 1030.56 1030.34 1030.17 1030.00 1029.76 1029.57 1029.33 1028.95 1028.55 1028.00 1027.64 1027.33 1027.01 1026.65 1026.21 1025.50 1024.89 1024.13 1023.35 1022.41 1022.02 1021.34 1020.69 1020.60 1019.90 1019.71 1018.79 1017.87 1017.43 1016.90 1016.12 1016.03 1016.32
1031.48 1032.54 1033.73 1034.99 1036.27 1036.76 1036.36 1036.51 1033.91 1032.48 1031.50 1030.88 1030.66 1030.66 1030.67 1030.51 1030.40 1030.26 1030.03 1029.94 1029.75 1029.59 1029.37 1028.99 1028.65 1028.33 1027.94 1027.57 1027.11 1026.70 1026.17 1025.62 1025.20 1024.45 1023.61 1022.79 1022.13 1021.59 1020.93 1020.87 1020.23 1020.04 1019.33 1018.32 1017.91 1017.28 1016.55 1016.03 1016.23
1032.42 1033.49 1035.09 1036.87 1037.91 1037.84 1036.88 1036.25 1033.17 1031.78 1030.97 1030.58 1030.50 1030.36 1030.44 1030.56 1030.43 1030.24 1030.08 1029.81 1029.80 1029.57 1029.35 1029.14 1028.75 1028.51 1028.08 1027.69 1027.25 1026.72 1026.25 1025.82 1025.37 1024.79 1024.20 1023.59 1022.96 1022.56 1021.41 1021.11 1020.49 1020.11 1019.28 1018.61 1017.97 1017.58 1017.03 1016.52 1015.98
1032.39 1033.81 1034.89 1036.57 1038.09 1039.01 1037.74 1036.03 1033.35 1031.54 1030.91 1030.50 1030.44 1030.45 1030.52 1030.50 1030.27 1030.09 1029.99 1029.91 1029.81 1029.58 1029.24 1029.10 1028.88 1028.43 1028.02 1027.73 1027.36 1026.87 1026.37 1025.87 1025.46 1024.81 1024.30 1023.82 1023.28 1022.60 1022.43 1021.44 1020.61 1020.11 1019.41 1019.13 1018.66 1018.12 1017.51 1016.93 1016.25
1032.03 1033.37 1035.10 1036.96 1038.79 1039.95 1038.46 1037.03 1034.50 1032.13 1031.08 1030.51 1030.33 1030.35 1030.31 1030.24 1030.29 1030.31 1030.19 1030.01 1029.78 1029.41 1029.18 1028.94 1028.63 1028.32 1028.12 1027.81 1027.39 1026.97 1026.45 1025.95 1025.38 1024.85 1024.37 1023.78 1023.12 1022.59 1022.09 1021.09 1021.06 1020.81 1020.13 1019.76 1019.05 1018.76 1018.11 1017.42 1016.81
1032.43 1033.42 1035.04 1036.74 1038.51 1039.87 1039.19 1036.12 1032.88 1031.60 1030.78 1030.43 1030.16 1030.03 1030.21 1030.39 1030.36 1030.25 1030.05 1029.92 1029.56 1029.28 1029.08 1028.95 1028.67 1028.45 1028.22 1027.91 1027.49 1027.04 1026.51 1026.03 1025.56 1025.06 1024.57 1024.05 1023.33 1022.75 1022.28 1021.92 1021.70 1021.20 1020.48 1020.38 1019.61 1019.08 1018.60 1018.18 1017.56
1031.88 1032.84 1034.29 1036.36 1037.73 1038.64 1038.69 1034.40 1031.35 1030.90 1030.47 1030.24 1030.22 1030.16 1030.06 1030.00 1029.96 1029.89 1029.80 1029.69 1029.38 1029.12 1028.98 1028.90 1028.74 1028.58 1028.30 1028.02 1027.63 1027.18 1026.62 1026.09 1025.67 1025.29 1024.70 1024.21 1023.55 1022.99 1022.54 1022.08 1021.85 1021.57 1021.37 1020.87 1020.14 1019.74 1019.35 1018.87 1018.21
Wind_Speed
7 6 2 5 5 6 5 7 4 3 5 16 15 15 16 13 5 5 13 14 19 16 15 18 25 26 21 10 10 4 7 6 2 7 10 12 15 15 15 14 14 15 16 18 16 17 18 19 18
4 1 5 3 6 5 3 5 18 12 14 10 15 13 11 8 11 5 10 20 17 13 13 16 24 25 27 20 14 7 4 3 3 6 10 13 15 14 15 14 14 16 17 16 15 16 18 19 17
2 4 5 6 6 4 3 9 4 13 9 7 6 11 8 10 12 5 8 13 15 14 13 16 24 24 24 24 24 17 8 5 2 5 8 11 13 13 13 12 9 12 17 17 14 15 17 15 16
3 6 7 8 8 10 5 12 4 1 11 13 6 10 8 13 6 7 9 9 11 13 14 19 27 27 25 24 25 23 14 7 1 5 8 11 11 10 9 9 12 10 14 17 13 15 14 13 15
5 5 8 6 11 4 8 8 21 10 9 13 7 10 8 5 5 8 7 10 15 15 15 17 28 28 28 26 25 24 22 10 5 5 8 9 10 10 8 7 9 13 15 16 14 14 13 15 15
6 5 7 7 6 10 5 11 12 14 11 12 12 8 8 11 8 8 14 12 13 15 16 17 25 28 25 25 25 24 23 18 10 6 7 8 8 8 6 7 8 11 15 12 16 14 13 16 16
8 7 6 8 7 5 11 4 13 12 14 16 8 9 5 19 14 9 14 15 16 15 16 16 16 21 24 23 24 23 22 21 15 8 6 7 8 9 7 9 12 12 12 14 13 16 13 14 13
7 7 4 5 3 6 8 19 13 12 17 5 7 8 4 8 10 11 15 16 18 18 18 17 16 16 15 12 23 25 23 21 19 16 11 7 9 9 5 10 11 9 9 10 14 15 13 13 12
4 8 4 4 5 6 4 14 19 16 19 22 17 14 6 7 12 16 16 17 17 16 19 18 17 17 16 14 17 21 25 23 20 19 20 7 3 5 9 7 10 9 8 11 14 11 11 11 12
8 6 6 4 6 13 10 13 9 12 18 16 14 12 10 13 15 16 15 14 15 17 17 16 16 16 17 14 15 13 14 12 11 12 13 9 4 4 7 7 11 10 7 11 10 15 11 9 4
7 7 10 15 17 18 18 17 6 13 16 12 11 9 9 14 12 13 11 9 8 11 13 16 16 15 16 14 11 8 8 9 9 12 11 11 6 3 3 3 3 4 7 3 6 7 6 6 4
13 13 8 9 9 11 20 20 22 19 13 10 11 8 11 14 12 9 9 8 8 11 12 15 16 15 14 10 9 10 9 9 9 11 13 10 7 3 3 2 3 3 3 3 4 5 5 7 6
25 17 18 18 18 17 19 18 15 15 10 8 10 12 12 11 9 7 7 7 7 11 12 12 14 14 13 12 10 10 10 9 10 10 11 10 9 8 3 3 5 5 3 4 3 4 6 7 5
8 19 10 9 11 9 15 7 6 6 5 10 11 10 9 10 8 7 7 8 8 9 11 10 12 12 12 12 12 10 9 10 9 8 10 12 10 8 8 6 7 5 5 3 3 3 6 6 5
8 15 9 8 2 6 8 11 4 4 5 10 8 8 9 9 10 8 7 8 7 6 7 11 13 11 11 12 11 9 9 10 9 9 12 12 11 11 10 6 6 6 4 5 4 4 3 5 4
6 7 5 3 7 4 5 1 3 6 10 8 8 7 7 7 5 6 7 6 8 7 8 8 9 10 10 10 9 8 9 8 9 9 9 13 13 13 10 7 4 6 7 7 6 6 5 5 6
10 4 6 9 6 2 7 4 2 4 8 6 6 5 5 5 6 5 6 6 8 8 8 9 8 10 9 8 8 8 10 9 8 9 8 13 13 14 11 7 6 5 5 8 6 6 8 5 5
1 2 5 4 4 8 8 5 3 3 6 4 2 2 3 2 3 4 6 6 6 7 8 7 7 9 8 7 6 7 7 6 7 9 10 12 10 15 11 9 9 3 4 8 5 3 8 6 5
6 3 2 4 4 6 4 5 4 3 3 3 2 1 0 2 5 3 4 6 7 7 8 8 9 10 7 8 9 8 8 8 8 8 14 13 12 13 13 9 9 9 7 5 6 3 8 6 5
7 6 6 3 6 7 1 2 4 5 5 5 5 4 4 3 4 4 4 5 5 5 7 8 8 8 7 7 7 4 6 5 6 6 10 12 13 12 12 12 10 10 8 4 8 5 5 3 7
3 6 5 1 2 5 3 6 5 6 4 5 6 5 5 6 3 3 3 2 3 4 5 6 7 7 6 7 6 7 5 6 6 9 9 11 12 13 12 13 10 10 9 6 5 7 7 5 5
4 3 3 1 1 3 3 7 6 6 8 6 6 5 7 4 2 1 0 3 3 4 5 6 7 6 6 7 7 7 7 7 7 6 8 8 12 12 13 14 12 12 8 10 6 5 6 6 7
4 3 1 1 3 2 2 1 9 3 6 8 7 7 5 4 2 1 1 2 2 3 5 5 7 7 6 7 6 5 7 6 7 7 8 9 9 12 12 12 12 11 9 9 10 6 7 6 7
5 5 5 4 3 3 2 4 9 4 6 4 5 6 6 5 4 3 3 2 3 4 5 5 6 6 7 6 7 7 7 9 8 10 8 8 8 9 11 12 11 11 10 10 9 9 5 7 5
9 6 3 5 5 7 1 3 12 6 8 7 7 6 7 7 6 4 3 3 5 6 6 6 6 7 7 7 7 7 7 7 8 9 8 9 9 10 11 12 11 10 9 10 9 8 7 4 6
3 3 6 4 3 8 5 7 10 6 7 6 6 6 6 5 5 5 5 3 4 6 6 6 7 6 6 6 7 7 7 4 5 6 7 6 6 7 11 11 11 11 10 9 9 6 6 7 5
1 4 4 2 1 3 4 9 11 5 7 6 6 5 8 8 6 6 6 3 5 6 6 5 6 5 5 6 6 7 6 7 6 7 7 6 7 8 9 10 11 11 10 11 10 7 8 7 6
1 5 2 4 3 6 7 7 9 5 8 7 7 8 7 6 6 6 6 5 4 5 5 6 4 3 4 6 6 6 6 7 6 6 7 9 9 9 9 10 9 9 9 10 11 7 8 8 7
1 1 3 4 5 5 4 10 9 8 7 8 9 8 6 6 6 6 6 6 6 5 4 4 3 4 5 6 6 6 7 7 6 5 6 8 9 9 9 9 7 9 10 10 10 10 9 9 8
3 4 5 5 3 4 4 12 5 9 8 7 8 7 6 5 6 5 5 6 6 5 5 4 2 4 5 5 5 6 6 7 6 5 7 8 9 8 8 8 8 10 10 11 11 11 9 9 9
Wind_Direction
307 308 101 44 58 63 40 15 6 23 58 50 62 72 87 40 360 56 328 359 347 344 334 330 11 14 4 18 31 17 41 58 105 121 111 116 121 126 125 116 115 116 115 117 118 121 124 123 118
293 4 42 75 74 61 65 18 31 25 121 99 46 48 47 69 21 57 355 339 347 349 349 344 10 17 20 17 19 22 28 56 105 133 133 123 119 119 118 116 125 128 117 118 123 130 130 127 121
213 51 73 73 47 37 44 356 301 44 36 59 85 40 35 350 42 29 324 338 342 4 8 359 10 17 25 18 23 6 354 354 96 135 135 125 124 120 114 109 97 113 118 112 116 132 133 126 121
71 18 37 65 78 29 60 359 306 176 48 38 77 59 92 16 45 358 346 347 1 12 12 11 14 10 22 16 15 9 1 340 305 141 144 140 138 135 132 128 134 139 128 121 136 137 130 122 124
39 59 53 74 65 49 28 32 48 68 77 36 67 72 78 30 68 40 11 15 19 21 17 17 18 16 12 7 14 6 5 354 317 207 159 166 157 147 139 144 157 147 131 129 136 137 128 132 116
42 87 76 72 75 40 53 32 63 70 78 105 61 83 50 11 356 26 18 17 21 24 22 17 13 14 13 11 11 1 1 360 358 272 184 177 164 158 145 153 148 136 136 158 143 137 137 134 120
100 72 116 139 129 47 12 99 33 43 54 38 85 79 32 16 357 352 21 24 28 31 29 17 12 8 5 10 8 358 358 353 3 353 267 197 175 177 172 175 146 156 163 152 135 143 143 142 136
97 89 85 44 73 69 58 69 58 50 31 44 36 40 32 346 355 20 29 19 22 29 27 20 11 13 4 359 359 5 355 352 3 7 355 275 179 161 203 184 161 160 158 139 139 149 146 142 122
71 60 58 119 111 140 166 82 65 78 80 67 65 72 53 26 37 41 31 24 24 23 19 16 13 11 7 6 358 358 355 351 1 3 353 322 235 197 197 177 177 165 184 160 138 137 141 142 122
72 76 49 31 102 102 78 77 74 90 73 67 69 54 38 41 39 40 33 27 21 19 19 17 13 10 11 7 2 358 353 347 346 1 352 337 291 239 186 186 172 179 198 167 159 156 150 134 127
21 92 89 68 82 80 84 67 62 86 66 66 74 57 35 42 42 41 32 23 7 11 17 16 14 15 15 7 3 354 349 351 346 353 351 338 312 243 241 180 178 163 210 156 165 150 153 131 140
73 58 87 62 52 73 72 76 62 69 82 73 69 68 57 45 33 26 24 13 10 15 11 10 16 14 15 10 5 354 354 352 350 336 359 342 333 262 232 218 187 169 165 193 180 148 138 138 147
83 84 83 93 91 83 81 70 77 70 74 72 64 54 52 49 35 20 17 6 13 21 12 9 15 13 8 11 359 357 354 344 346 343 350 340 331 331 191 202 198 207 186 187 171 171 147 144 153
127 89 83 71 82 65 82 26 72 29 73 68 60 50 42 41 30 32 15 11 8 17 15 5 14 8 9 9 1 356 349 342 345 346 342 348 337 331 334 206 206 202 208 200 161 176 167 141 158
117 87 72 28 145 154 104 36 32 323 85 72 57 45 44 26 21 14 7 21 356 350 359 13 17 0 3 5 3 357 351 349 342 348 341 347 347 333 322 263 195 203 197 186 180 164 164 128 164
45 52 30 344 20 31 77 144 323 325 83 54 49 44 42 21 16 357 6 11 0 358 359 1 6 2 356 354 360 358 351 350 340 347 339 348 348 333 324 309 192 191 201 200 192 193 177 160 158
20 36 8 332 19 64 81 172 232 6 84 72 52 47 57 28 18 357 8 10 3 358 357 4 355 358 347 347 349 355 352 351 348 346 342 347 350 336 327 332 314 194 210 192 190 193 186 155 155
216 27 300 268 323 52 84 131 83 16 100 125 120 73 53 37 329 326 17 9 8 6 355 355 354 354 343 351 345 345 354 356 351 354 340 348 352 345 340 345 339 276 210 200 172 187 165 132 143
136 129 336 299 278 98 126 133 173 225 133 161 207 277 312 336 311 33 27 1 16 5 4 353 0 348 354 355 351 350 351 352 355 354 337 350 354 351 345 351 348 349 300 194 171 144 173 137 126
63 42 349 333 4 84 104 200 265 224 218 209 211 243 262 287 314 349 12 18 6 345 353 352 352 347 347 358 347 324 328 334 346 350 338 353 357 348 350 352 348 343 321 210 166 153 152 142 154
35 45 330 159 14 38 114 308 253 259 256 234 245 251 252 244 279 312 360 338 331 351 333 347 344 343 343 353 347 342 338 339 344 356 348 356 352 352 355 355 350 339 344 322 171 171 175 156 176
30 333 358 70 139 236 118 281 268 231 228 222 236 238 253 246 275 226 158 347 324 316 311 345 340 341 352 352 356 350 346 349 338 330 344 348 352 352 354 357 354 342 331 340 340 187 165 156 165
268 331 22 87 100 47 235 51 265 311 259 244 235 231 233 236 228 169 146 294 284 293 307 312 332 346 347 356 353 354 346 335 334 335 341 357 343 357 355 351 351 337 335 345 337 340 178 183 174
310 28 44 60 83 7 227 118 281 213 218 228 235 224 207 215 229 258 264 313 328 339 335 324 334 331 351 355 344 346 340 336 344 344 343 347 353 353 355 348 351 335 332 339 337 324 296 186 179
22 36 351 349 4 235 259 37 242 254 239 230 247 258 215 224 232 264 280 315 328 334 326 320 335 328 340 347 343 336 333 334 335 339 342 344 349 347 350 341 345 335 325 326 327 322 320 229 181
61 99 132 274 275 278 312 235 261 230 267 254 273 219 233 246 250 260 267 284 305 317 322 329 330 332 335 335 332 327 333 326 323 332 335 333 343 333 341 335 333 326 333 332 338 319 329 337 197
117 48 180 184 309 326 265 292 306 256 269 265 271 244 249 244 251 263 300 306 312 306 314 310 331 319 318 327 327 324 327 330 323 325 336 335 337 335 331 330 334 334 6 356 339 346 335 336 313
28 166 37 15 0 302 291 284 244 276 261 263 271 266 273 280 283 310 310 291 297 305 296 320 312 285 314 320 326 323 317 320 325 332 338 338 332 336 337 344 351 356 9 353 359 346 341 343 334
16 1 68 138 141 195 296 268 219 228 239 232 254 277 274 290 274 278 291 288 289 306 289 318 321 331 329 330 324 332 324 323 333 337 332 342 333 339 340 340 16 8 5 357 352 352 354 345 327
159 200 150 120 247 225 157 271 244 228 236 234 266 281 280 268 277 276 281 285 308 306 339 316 332 339 332 327 337 336 330 334 339 347 334 347 337 338 338 21 17 17 6 358 356 346 344 337 331